Regional Weather Roundup
Issued by NWS

Home | Current Version | Previous Version | Text Only | Print | Product List | Glossary Off
Versions: 1 2 3 4 5 6 7 8 9 10 11 12 13 14 15 16 17 18 19 20 21 22 23 24 25 26 27 28 29 30 31 32 33 34 35 36 37 38 39 40 41 42 43 44 45 46 47 48 49 50

000
ASUS43 KOAX 160202
RWRNE

WEATHER ROUNDUP FOR NEBRASKA
NATIONAL WEATHER SERVICE OMAHA NE
900 PM CDT TUE APR 15 2014

NOTES: SATELLITE DATA IS BEING USED TO AUGMENT CLOUD COVER ABOVE
       12000 FEET.
       "FAIR" INDICATES FEW OR NO CLOUDS BELOW 12,000 FEET WITH NO
       SIGNIFICANT WEATHER AND/OR OBSTRUCTIONS TO VISIBILITY.

  * THESE STATIONS DO NOT REPORT WEATHER SUCH AS RAIN...SNOW OR FOG.

NEZ001>004-019>022-054>056-160300-
NEBRASKA PANHANDLE

CITY           SKY/WX    TMP DP  RH WIND       PRES   REMARKS
SCOTTSBLUFF    CLOUDY    56  28  34 S6        29.60F
ALLIANCE       MOCLDY    47  31  53 S10       29.60F
CHADRON        CLOUDY    49  33  54 S9        29.54F
KIMBALL        CLOUDY    51  22  32 SW13      29.66F
SIDNEY         MOCLDY    51  28  41 SW6       29.67R
$$

NEZ057>060-069>072-079>082-160300-
SOUTHWEST NEBRASKA

CITY           SKY/WX    TMP DP  RH WIND       PRES   REMARKS
NORTH PLATTE   PTCLDY    53  20  27 SE6       29.64F
IMPERIAL         N/A     54  25  32 MISG      29.67S
LEXINGTON      PTCLDY    53  32  45 S14       29.69S
MCCOOK         CLEAR     56  27  32 S16       29.69F
OGALLALA       PTCLDY    57  23  26 S7        29.64S
$$

NEZ005>010-023>029-035>040-094-160300-
NORTH CENTRAL NEBRASKA

CITY           SKY/WX    TMP DP  RH WIND       PRES   REMARKS
VALENTINE      CLOUDY    54  29  38 SW6       29.58S
AINSWORTH      MOCLDY    56  25  29 S7        29.60R
BROKEN BOW     PTCLDY    52  32  46 S10       29.66F
O`NEILL        MOCLDY    52  28  39 SE10      29.65F
ORD            PTCLDY    54  30  40 S15       29.66F
THEDFORD       MOCLDY    58  24  27 S8        29.62S
$$

NEZ041-046>049-061>064-073>077-083>087-160300-
SOUTH CENTRAL NEBRASKA

CITY           SKY/WX    TMP DP  RH WIND       PRES   REMARKS
GRAND ISLAND   CLOUDY    54  28  36 S16       29.73F
AURORA         MOCLDY    53  28  37 S14       29.76S
HASTINGS       PTCLDY    55  26  32 S13       29.74F
HEBRON         CLOUDY    55  21  26 S14       29.82S
HOLDREGE       CLEAR     53  28  38 S12       29.72R
KEARNEY *      PTCLDY    52  30  43 S14       29.72S
YORK           MOCLDY    52  27  37 S14       29.78S
$$

NEZ011>018-030>034-042>045-160300-
NORTHEAST NEBRASKA

CITY           SKY/WX    TMP DP  RH WIND       PRES   REMARKS
NORFOLK        PTCLDY    48  27  44 SE13      29.74F
ALBION         MOCLDY    51  31  47 SE10      29.72S
BLAIR          MOCLDY    48  28  47 SE17G25   29.85S
COLUMBUS *     PTCLDY    52  27  37 SE13      29.78R
FREMONT        PTCLDY    49  29  46 SE18G24   29.83S
TEKAMAH        PTCLDY    46  29  51 SE18      29.85F
$$

NEZ050>053-065>068-078-088>093-160300-
SOUTHEAST NEBRASKA

CITY           SKY/WX    TMP DP  RH WIND       PRES   REMARKS
LINCOLN        CLOUDY    54  23  30 S15       29.84S
OMAHA EPPLEY   MOCLDY    48  29  47 SE20      29.87F
BEATRICE       CLOUDY    55  20  25 S14       29.85F
FALLS CITY     CLOUDY    48  31  51 SE15      29.94S
NEBRASKA CITY  CLOUDY    49  28  44 S16G24    29.90S
PLATTSMOUTH    CLOUDY    49  28  45 SE17G26   29.89S
$$

NEZ044-045-051>053-067-160300-
OMAHA AREA

CITY           SKY/WX    TMP DP  RH WIND       PRES   REMARKS
OMAHA EPPLEY   MOCLDY    48  29  47 SE20      29.87F
BLAIR          MOCLDY    48  28  47 SE17G25   29.85S
FREMONT        PTCLDY    49  29  46 SE18G24   29.83S
MILLARD        MOCLDY    48  29  48 SE14G20   29.87S
OFFUTT AFB     MOCLDY    46  32  56 SE12      29.88F
PLATTSMOUTH    CLOUDY    49  28  45 SE17G26   29.89S
WAHOO          FAIR      46  30  54 SE16      29.83S
$$



USA.gov is the U.S. government's official web portal to all federal, state and local government web resources and services.